CW7164 Weather Reports


time (UTC)temp
C
wind
direction
speed
KPH
gust
KPH
rain 1hr
cm
rain 24hr
cm
rain mn
cm
humidity
%
barometer
mb
20260507202536 16 137 3.2 11.3 0.00 0.05 0.05 53 1009.9
20260507201636 15 159 4.8 14.5 0.00 0.05 0.05 51 1010.1
20260507200736 15 189 3.2 8.0 0.00 0.05 0.05 51 1010.2
20260507195836 15 170 4.8 9.7 0.00 0.05 0.05 52 1010.3
20260507194036 14 168 4.8 11.3 0.03 0.05 0.05 56 1011.0
20260507193136 14 179 4.8 9.7 0.03 0.05 0.05 54 1011.1
20260507192236 14 178 4.8 14.5 0.03 0.05 0.05 54 1011.4
20260507191336 14 195 3.2 11.3 0.03 0.05 0.05 54 1011.4
20260507185536 15 270 3.2 12.9 0.03 0.05 0.05 50 1011.7
20260507184636 15 187 3.2 12.9 0.00 0.03 0.03 48 1011.5
20260507183736 15 201 3.2 9.7 0.00 0.03 0.03 46 1011.6
20260507182836 14 200 3.2 12.9 0.00 0.03 0.03 43 1011.7
20260507181036 15 151 3.2 11.3 0.00 0.03 0.03 42 1011.7
20260507180136 15 184 3.2 9.7 0.00 0.03 0.03 41 1011.8
20260507175236 15 181 3.2 11.3 0.00 0.03 0.03 40 1011.9
20260507174336 15 155 3.2 11.3 0.00 0.03 0.03 39 1012.0
20260507173436 15 206 3.2 8.0 0.00 0.03 0.03 39 1012.2
20260507172536 15 206 3.2 6.4 0.00 0.03 0.03 40 1012.3
20260507171636 14 151 3.2 9.7 0.00 0.03 0.03 42 1012.5
20260507170736 14 164 1.6 6.4 0.00 0.03 0.03 44 1012.8
20260507164936 13 161 1.6 8.0 0.00 0.03 0.03 43 1013.0
20260507164036 13 141 1.6 8.0 0.00 0.03 0.03 46 1013.1
20260507163136 13 161 1.6 6.4 0.00 0.03 0.03 45 1013.2
20260507162236 13 156 1.6 6.4 0.00 0.03 0.03 44 1013.5
20260507161336 13 118 3.2 6.4 0.00 0.03 0.03 43 1013.7
20260507160436 13 203 1.6 4.8 0.00 0.03 0.03 43 1013.9
20260507155536 12 209 1.6 6.4 0.00 0.03 0.03 43 1014.2
20260507151936 11 225 1.6 8.0 0.00 0.03 0.03 44 1014.3
20260507151036 11 257 1.6 4.8 0.00 0.03 0.03 44 1014.4
20260507150136 11 197 1.6 6.4 0.00 0.03 0.03 44 1014.5
20260507145236 12 137 1.6 6.4 0.00 0.03 0.03 44 1014.6
20260507144336 11 140 1.6 8.0 0.00 0.03 0.03 46 1014.8
20260507143436 11 8 1.6 8.0 0.00 0.03 0.03 48 1014.9
20260507142536 10 254 1.6 4.8 0.00 0.03 0.03 48 1015.0
20260507141636 10 313 1.6 3.2 0.00 0.03 0.03 51 1015.0
20260507140736 9 157 1.6 3.2 0.00 0.03 0.03 53 1015.0
20260507134936 8 115 1.6 6.4 0.00 0.03 0.03 56 1015.1
20260507134036 7 52 0.0 3.2 0.03 0.03 0.03 58 1015.2
20260507133136 7 51 0.0 3.2 0.03 0.03 0.03 61 1015.2
20260507130438 5 284 1.6 3.2 0.03 0.03 0.03 70 1015.4
20260507125536 4 340 0.0 3.2 0.03 0.03 0.03 73 1015.5
20260507124636 3 0 0.0 0.0 0.03 0.03 0.03 72 1015.3
20260507123736 2 343 0.0 1.6 0.00 0.00 0.00 72 1015.2
20260507121936 1 343 0.0 1.6 0.00 0.00 0.00 71 1015.1
20260507121036 1 0 0.0 0.0 0.00 0.00 0.00 71 1015.0
20260507120136 1 0 0.0 0.0 0.00 0.00 0.00 72 1015.0
20260507115237 1 0 0.0 0.0 0.00 0.00 0.00 72 1014.9
20260507114336 0 0 0.0 0.0 0.00 0.00 0.00 73 1014.9
20260507113436 0 0 0.0 0.0 0.00 0.00 0.00 73 1014.9
20260507112536 0 0 0.0 0.0 0.00 0.00 0.00 73 1015.0
20260507111639 0 0 0.0 0.0 0.00 0.00 0.00 74 1014.9
20260507110738 0 0 0.0 0.0 0.00 0.00 0.00 74 1014.8
20260507104943 0 0 0.0 0.0 0.00 0.00 0.00 74 1014.8
20260507104043 0 0 0.0 0.0 0.00 0.00 0.00 75 1014.8
20260507103143 0 0 0.0 0.0 0.00 0.00 0.00 75 1014.9
20260507102243 0 0 0.0 0.0 0.00 0.00 0.00 75 1014.9
20260507101343 0 0 0.0 0.0 0.00 0.00 0.00 75 1014.8
20260507100444 0 0 0.0 0.0 0.00 0.00 0.00 75 1014.8
20260507095543 0 0 0.0 0.0 0.00 0.00 0.00 75 1014.8
20260507093743 0 0 0.0 0.0 0.00 0.00 0.00 76 1014.8
20260507092844 1 0 0.0 0.0 0.00 0.00 0.00 76 1014.9
20260507091943 1 0 0.0 0.0 0.00 0.00 0.00 76 1014.9
20260507091043 1 0 0.0 0.0 0.00 0.00 0.00 76 1015.0
20260507090144 1 0 0.0 0.0 0.00 0.00 0.00 76 1015.0
20260507085244 1 0 0.0 0.0 0.00 0.00 0.00 76 1015.0
20260507083443 1 0 0.0 0.0 0.00 0.00 0.00 76 1015.0
20260507082544 1 0 0.0 0.0 0.00 0.00 0.00 76 1014.9
20260507081644 1 0 0.0 0.0 0.00 0.00 0.00 76 1014.9
20260507080743 1 0 0.0 0.0 0.00 0.00 0.00 76 1014.8
20260507075844 1 0 0.0 0.0 0.00 0.00 0.00 76 1014.9
20260507074943 1 0 0.0 0.0 0.00 0.00 0.00 75 1014.9
20260507074043 1 0 0.0 0.0 0.00 0.00 0.00 75 1014.9
20260507073144 1 0 0.0 0.0 0.00 0.00 0.00 75 1014.9
20260507072243 2 0 0.0 0.0 0.00 0.00 0.00 75 1014.9
20260507071344 2 0 0.0 0.0 0.00 0.00 0.00 75 1014.9
20260507070444 2 0 0.0 0.0 0.00 0.00 0.00 75 1015.1
20260507064644 2 0 0.0 0.0 0.00 0.00 0.00 75 1015.2
20260507063743 2 0 0.0 0.0 0.00 0.00 0.00 74 1015.2
20260507062843 2 0 0.0 0.0 0.00 0.00 0.00 74 1015.2
20260507061944 2 0 0.0 0.0 0.00 0.00 0.00 74 1015.3
20260507061043 2 0 0.0 0.0 0.00 0.00 0.00 73 1015.3
20260507055243 2 0 0.0 0.0 0.00 0.00 0.00 72 1015.3
20260507054343 2 0 0.0 0.0 0.00 0.00 0.00 72 1015.3
20260507053444 3 0 0.0 0.0 0.00 0.00 0.00 71 1015.2
20260507052543 3 0 0.0 0.0 0.00 0.00 0.00 71 1015.3
20260507051643 3 0 0.0 0.0 0.00 0.00 0.00 70 1015.3
20260507050743 3 0 0.0 0.0 0.00 0.00 0.00 70 1015.3
20260507045843 3 0 0.0 0.0 0.00 0.00 0.00 68 1015.3
20260507044943 3 0 0.0 0.0 0.00 0.00 0.00 68 1015.3
20260507044044 4 0 0.0 0.0 0.00 0.00 0.00 67 1015.3
20260507043143 4 0 0.0 0.0 0.00 0.00 0.00 66 1015.3
20260507042244 5 0 0.0 0.0 0.00 0.00 0.00 65 1015.3
20260507041344 5 0 0.0 0.0 0.00 0.00 0.00 63 1015.3
20260507035544 5 0 0.0 0.0 0.00 0.00 0.00 60 1015.2
20260507034644 5 0 0.0 0.0 0.00 0.00 0.00 60 1015.2
20260507033743 5 0 0.0 0.0 0.00 0.00 0.00 59 1015.2
20260507032844 5 0 0.0 0.0 0.00 0.00 0.00 59 1015.2
20260507031944 6 343 0.0 1.6 0.00 0.00 0.00 58 1015.3
20260507031043 6 0 0.0 0.0 0.00 0.00 0.00 57 1015.3
20260507030144 6 0 0.0 0.0 0.00 0.00 0.00 55 1015.2
20260507025244 6 0 0.0 0.0 0.00 0.00 0.00 55 1015.2
20260507024344 7 347 0.0 1.6 0.00 0.00 0.00 53 1015.2
20260507023443 7 347 0.0 1.6 0.00 0.00 0.00 51 1015.1
20260507022543 7 347 0.0 1.6 0.00 0.00 0.00 50 1015.0
20260507021642 7 337 0.0 3.2 0.00 0.00 0.00 50 1014.8
20260507015854 8 334 1.6 3.2 0.00 0.00 0.00 47 1014.6
20260507014944 8 323 1.6 3.2 0.00 0.00 0.00 47 1014.5
20260507014044 8 330 1.6 8.0 0.00 0.00 0.00 46 1014.4
20260507012244 8 308 1.6 6.4 0.00 0.00 0.00 45 1014.4
20260507011342 8 336 3.2 12.9 0.00 0.00 0.00 45 1014.5
20260507010444 9 340 1.6 8.0 0.00 0.00 0.00 45 1014.4
20260507005543 9 308 1.6 9.7 0.00 0.00 0.00 43 1014.3
20260507004644 10 306 3.2 12.9 0.00 0.00 0.00 44 1014.2
20260507002843 10 323 4.8 19.3 0.00 0.00 0.00 43 1014.2
20260507001944 10 311 3.2 11.3 0.00 0.00 0.00 43 1014.3
20260507001043 10 310 4.8 16.1 0.00 0.00 0.00 41 1013.9
20260507000144 11 304 4.8 16.1 0.00 0.00 0.00 41 1013.9
20260506234344 11 304 4.8 14.5 0.00 0.00 0.00 40 1013.7
20260506233443 11 303 3.2 14.5 0.00 0.00 0.00 41 1013.6
20260506232543 11 302 3.2 14.5 0.00 0.00 0.00 40 1013.6
20260506231643 11 306 3.2 12.9 0.00 0.00 0.00 39 1013.5
20260506230743 11 310 4.8 20.9 0.00 0.00 0.00 39 1013.5
20260506225844 12 316 3.2 12.9 0.00 0.00 0.00 39 1013.3
20260506224943 12 292 3.2 9.7 0.00 0.00 0.00 40 1013.3
20260506224043 12 305 3.2 11.3 0.00 0.00 0.00 39 1013.3
20260506222244 12 275 3.2 12.9 0.00 0.00 0.00 39 1013.3
20260506221343 12 292 4.8 16.1 0.00 0.00 0.00 40 1013.2
20260506220443 12 300 4.8 14.5 0.00 0.00 0.00 38 1013.1
20260506215543 12 248 3.2 11.3 0.00 0.00 0.00 39 1013.2
20260506214643 12 274 4.8 11.3 0.00 0.00 0.00 38 1013.0
20260506213744 12 308 4.8 20.9 0.00 0.00 0.00 38 1012.9
20260506212843 13 242 3.2 11.3 0.00 0.00 0.00 36 1013.0
20260506211043 13 303 3.2 14.5 0.00 0.00 0.00 37 1012.7
20260506210143 13 302 3.2 11.3 0.00 0.00 0.00 37 1012.8
20260506205243 14 272 3.2 14.5 0.00 0.00 0.00 35 1012.8
20260506204343 14 250 3.2 12.9 0.00 0.00 0.00 36 1012.8
20260506203443 14 270 3.2 16.1 0.00 0.00 0.00 35 1012.9